{"data":{"norad_id":37931,"intl_designator":"2011-068B","name":"SHIYAN-4 (SY-4)","alt_names":[],"object_type":"PAYLOAD","status":"ACTIVE","operator":null,"country":"PRC","launch_date":"2011-11-20","launch_site_code":"JSC","launch_vehicle":null,"mission":null,"orbit_class":"UNKNOWN","rcs_meters":1.157,"size_class":null,"mass_kg":null,"dimensions":null,"purposes":[],"wikipedia_slug":null,"has_3d_model":false,"image_url":null,"decayed_at":null,"tle_current":{"epoch":"2026-05-25T00:37:39.844704Z","epoch_age_seconds":73129,"freshness":"FRESH","line1":"1 37931U 11068B   26145.02615561  .00000130  00000+0  66235-4 0  9992","line2":"2 37931  98.6959 164.0250 0022286 211.3081 203.3507 14.31118297755582","mean_motion":14.31118297,"eccentricity":0.0022286,"inclination_deg":98.6959,"raan_deg":164.025,"arg_perigee_deg":211.3081,"mean_anomaly_deg":203.3507,"bstar":6.6235e-5,"rev_number":75558,"period_min":100.62061277664,"perigee_km":772.02480331027,"apogee_km":803.9656879555,"semimajor_km":7166.1322456329,"source":"CELESTRAK","updated_at":"2026-05-25T13:37:55.271368Z"}}}